TimeCST,TemperatureF,Dew PointF,Humidity,Sea Level PressureIn,VisibilityMPH,Wind Direction,Wind SpeedMPH,Gust SpeedMPH,PrecipitationIn,Events,Conditions,WindDirDegrees,DateUTC
12:15 AM,41.0,39.2,93,30.12,10.0,Calm,Calm,-,N/A,,Mostly Cloudy,0,2012-11-20 06:15:00
12:35 AM,39.2,37.4,93,30.12,10.0,Calm,Calm,-,N/A,,Partly Cloudy,0,2012-11-20 06:35:00
12:55 AM,39.2,37.4,93,30.12,10.0,Calm,Calm,-,N/A,,Scattered Clouds,0,2012-11-20 06:55:00
1:15 AM,39.2,39.2,100,30.11,10.0,Calm,Calm,-,N/A,,Partly Cloudy,0,2012-11-20 07:15:00
1:35 AM,37.4,37.4,100,30.11,6.0,Calm,Calm,-,N/A,,Clear,0,2012-11-20 07:35:00
1:55 AM,37.4,37.4,100,30.11,7.0,Calm,Calm,-,N/A,,Clear,0,2012-11-20 07:55:00
2:15 AM,37.4,37.4,100,30.11,7.0,Calm,Calm,-,N/A,,Clear,0,2012-11-20 08:15:00
2:35 AM,37.4,37.4,100,30.10,7.0,Calm,Calm,-,N/A,,Clear,0,2012-11-20 08:35:00
6:15 AM,33.8,33.8,100,30.09,9.0,Calm,Calm,-,N/A,,Scattered Clouds,0,2012-11-20 12:15:00
6:35 AM,33.8,33.8,100,30.10,9.0,Calm,Calm,-,N/A,,Scattered Clouds,0,2012-11-20 12:35:00
6:55 AM,35.6,35.6,100,30.10,9.0,Calm,Calm,-,N/A,,Clear,0,2012-11-20 12:55:00
7:15 AM,33.8,33.8,100,30.10,8.0,Calm,Calm,-,N/A,,Partly Cloudy,0,2012-11-20 13:15:00
7:35 AM,35.6,35.6,100,30.10,9.0,Calm,Calm,-,N/A,,Clear,0,2012-11-20 13:35:00
7:55 AM,35.6,35.6,100,30.12,9.0,Calm,Calm,-,N/A,,Partly Cloudy,0,2012-11-20 13:55:00
8:15 AM,37.4,37.4,100,30.12,7.0,Calm,Calm,-,N/A,,Clear,0,2012-11-20 14:15:00
8:35 AM,37.4,37.4,100,30.12,6.0,Calm,Calm,-,N/A,,Clear,0,2012-11-20 14:35:00
8:55 AM,41.0,41.0,100,30.12,7.0,Calm,Calm,-,N/A,,Clear,0,2012-11-20 14:55:00
9:15 AM,44.6,44.6,100,30.12,8.0,NNW,5.8,-,N/A,,Clear,330,2012-11-20 15:15:00
9:35 AM,44.6,44.6,100,30.12,9.0,NNW,6.9,-,N/A,,Clear,330,2012-11-20 15:35:00
9:55 AM,46.4,44.6,93,30.13,9.0,Calm,Calm,-,N/A,,Clear,0,2012-11-20 15:55:00
10:15 AM,50.0,46.4,87,30.13,9.0,WNW,6.9,-,N/A,,Clear,290,2012-11-20 16:15:00
10:35 AM,50.0,46.4,87,30.13,9.0,WNW,8.1,-,N/A,,Clear,290,2012-11-20 16:35:00
10:55 AM,53.6,46.4,77,30.12,10.0,Calm,Calm,-,N/A,,Clear,0,2012-11-20 16:55:00
11:15 AM,53.6,46.4,77,30.11,10.0,WNW,8.1,-,N/A,,Clear,290,2012-11-20 17:15:00
11:35 AM,55.4,44.6,67,30.10,10.0,West,5.8,-,N/A,,Clear,280,2012-11-20 17:35:00
11:55 AM,55.4,44.6,67,30.09,10.0,WNW,5.8,-,N/A,,Clear,290,2012-11-20 17:55:00
12:15 PM,57.2,44.6,63,30.09,10.0,WNW,5.8,-,N/A,,Clear,300,2012-11-20 18:15:00
12:35 PM,59.0,44.6,59,30.09,10.0,West,6.9,-,N/A,,Clear,270,2012-11-20 18:35:00
1:15 PM,59.0,44.6,59,30.08,10.0,WNW,6.9,17.3,N/A,,Clear,300,2012-11-20 19:15:00
2:15 PM,62.6,44.6,52,30.08,10.0,WNW,6.9,-,N/A,,Clear,290,2012-11-20 20:15:00
2:35 PM,62.6,44.6,52,30.08,10.0,NNW,11.5,-,N/A,,Clear,330,2012-11-20 20:35:00
2:55 PM,62.6,44.6,52,30.08,10.0,NNW,11.5,-,N/A,,Clear,340,2012-11-20 20:55:00
3:15 PM,62.6,46.4,55,30.09,10.0,North,9.2,-,N/A,,Clear,360,2012-11-20 21:15:00
3:35 PM,60.8,46.4,59,30.10,10.0,NNW,11.5,-,N/A,,Clear,340,2012-11-20 21:35:00
3:55 PM,60.8,46.4,59,30.11,10.0,NNW,9.2,-,N/A,,Clear,340,2012-11-20 21:55:00
4:15 PM,59.0,48.2,67,30.12,10.0,NNW,8.1,-,N/A,,Clear,330,2012-11-20 22:15:00
4:35 PM,57.2,48.2,72,30.12,10.0,NNW,8.1,-,N/A,,Clear,330,2012-11-20 22:35:00
4:55 PM,55.4,46.4,72,30.13,10.0,NNW,5.8,-,N/A,,Clear,330,2012-11-20 22:55:00
5:15 PM,57.2,48.2,72,30.14,10.0,Calm,Calm,-,N/A,,Clear,0,2012-11-20 23:15:00
5:35 PM,55.4,48.2,77,30.15,10.0,Calm,Calm,-,N/A,,Clear,0,2012-11-20 23:35:00
5:55 PM,53.6,48.2,82,30.15,10.0,Calm,Calm,-,N/A,,Clear,0,2012-11-20 23:55:00
6:15 PM,51.8,46.4,82,30.16,10.0,Calm,Calm,-,N/A,,Clear,0,2012-11-21 00:15:00
6:35 PM,48.2,44.6,87,30.16,10.0,Calm,Calm,-,N/A,,Clear,0,2012-11-21 00:35:00
6:55 PM,48.2,44.6,87,30.17,10.0,Calm,Calm,-,N/A,,Clear,0,2012-11-21 00:55:00
7:15 PM,48.2,44.6,87,30.18,9.0,Calm,Calm,-,N/A,,Clear,0,2012-11-21 01:15:00
7:35 PM,46.4,44.6,93,30.18,8.0,Calm,Calm,-,N/A,,Clear,0,2012-11-21 01:35:00
7:55 PM,44.6,42.8,93,30.18,8.0,Calm,Calm,-,N/A,,Clear,0,2012-11-21 01:55:00
8:15 PM,44.6,44.6,100,30.19,7.0,Calm,Calm,-,N/A,,Clear,0,2012-11-21 02:15:00
8:35 PM,42.8,42.8,100,30.19,6.0,Calm,Calm,-,N/A,,Clear,0,2012-11-21 02:35:00
8:55 PM,41.0,41.0,100,30.19,6.0,Calm,Calm,-,N/A,,Clear,0,2012-11-21 02:55:00
9:15 PM,41.0,41.0,100,30.19,6.0,NNW,4.6,-,N/A,,Partly Cloudy,340,2012-11-21 03:15:00
9:35 PM,44.6,44.6,100,30.20,5.0,Calm,Calm,-,N/A,,Partly Cloudy,0,2012-11-21 03:35:00
9:55 PM,42.8,42.8,100,30.20,5.0,Calm,Calm,-,N/A,,Partly Cloudy,0,2012-11-21 03:55:00
10:15 PM,39.2,39.2,100,30.20,4.0,Calm,Calm,-,N/A,,Clear,0,2012-11-21 04:15:00
10:35 PM,39.2,39.2,100,30.20,3.0,Calm,Calm,-,N/A,,Clear,0,2012-11-21 04:35:00
10:55 PM,39.2,39.2,100,30.21,3.0,Calm,Calm,-,N/A,,Partly Cloudy,0,2012-11-21 04:55:00
11:15 PM,39.2,39.2,100,30.21,3.0,Calm,Calm,-,N/A,,Mostly Cloudy,0,2012-11-21 05:15:00
11:35 PM,39.2,39.2,100,30.21,1.2,Calm,Calm,-,N/A,,Overcast,0,2012-11-21 05:35:00
11:55 PM,39.2,39.2,100,30.21,0.2,Calm,Calm,-,N/A,Fog,Fog,0,2012-11-21 05:55:00